GW1091 Weather Reports


time (UTC)temp
F
wind
direction
speed
knots
gust
knots
rain 1hr
in
rain 24hr
in
rain mn
in
humidity
%
barometer
mb
20260506015143 62 158 0.0 0.0 0.00 0.00 0.00 98 1013.4
20260506014633 62 158 0.0 0.0 0.00 0.00 0.00 98 1013.5
20260506014123 61 135 0.0 0.0 0.00 0.00 0.00 98 1013.5
20260506013613 62 135 0.0 0.0 0.00 0.00 0.00 99 1013.6
20260506013102 61 135 0.0 0.0 0.00 0.00 0.00 98 1013.5
20260506012552 61 135 0.0 0.0 0.00 0.00 0.00 98 1013.5
20260506011533 61 135 0.0 0.0 0.00 0.00 0.00 98 1013.5
20260506011022 61 135 0.0 0.0 0.00 0.00 0.00 98 1013.6
20260506010511 61 135 0.0 0.0 0.00 0.00 0.00 98 1013.5
20260506010003 61 135 0.0 0.0 0.00 0.00 0.00 98 1013.6
20260506005454 61 135 0.0 0.0 0.00 0.00 0.00 98 1013.6
20260506004942 61 135 0.0 0.0 0.00 0.00 0.00 98 1013.5
20260506004432 60 135 0.0 0.0 0.00 0.00 0.00 97 1013.5
20260506003412 60 113 0.0 0.0 0.00 0.00 0.00 98 1013.8
20260506002902 60 113 0.0 0.0 0.00 0.00 0.00 98 1013.7
20260506002352 60 113 0.0 0.0 0.00 0.00 0.00 98 1013.9
20260506001841 60 113 0.0 0.0 0.00 0.00 0.00 97 1013.8
20260506001331 60 113 0.0 0.0 0.00 0.00 0.00 97 1013.8
20260506000822 60 113 0.0 0.0 0.00 0.00 0.00 97 1013.7
20260506000310 60 113 0.0 0.0 0.00 0.00 0.00 97 1013.7
20260505235251 59 113 0.0 0.0 0.00 0.00 0.00 96 1013.4
20260505234740 59 113 0.0 0.0 0.00 0.00 0.00 97 1013.3
20260505234230 59 113 0.0 0.0 0.00 0.00 0.00 96 1013.4
20260505233720 59 113 0.0 0.0 0.00 0.00 0.00 96 1013.1
20260505233210 60 113 0.0 0.0 0.00 0.00 0.00 96 1013.2
20260505232700 60 113 0.0 0.0 0.00 0.00 0.00 97 1013.0
20260505232150 61 113 0.0 0.0 0.00 0.00 0.00 97 1013.1
20260505231640 61 113 0.0 0.0 0.00 0.00 0.00 97 1013.1
20260505230620 61 113 0.0 0.0 0.00 0.00 0.00 97 1013.0
20260505230109 62 113 0.0 0.0 0.00 0.00 0.00 97 1012.7
20260505225600 62 113 0.0 0.0 0.00 0.00 0.00 96 1012.6
20260505225049 63 113 0.0 0.0 0.00 0.00 0.00 96 1012.5
20260505224538 63 113 0.0 0.0 0.00 0.00 0.00 95 1012.7
20260505224029 63 113 0.0 0.0 0.00 0.00 0.00 93 1012.3
20260505223519 63 113 0.0 0.0 0.00 0.00 0.00 92 1012.6
20260505223008 63 113 0.0 0.0 0.00 0.00 0.00 92 1012.5
20260505222458 63 90 0.0 0.0 0.00 0.00 0.00 91 1012.5
20260505221949 64 23 0.0 0.0 0.00 0.00 0.00 91 1012.4
20260505221438 64 23 0.0 0.0 0.00 0.00 0.00 90 1012.7
20260505220929 65 23 0.0 0.0 0.00 0.00 0.00 89 1012.4
20260505220418 65 23 0.0 0.0 0.00 0.00 0.00 89 1012.4
20260505215908 65 23 0.0 0.0 0.00 0.00 0.00 88 1012.6
20260505215358 66 23 0.0 0.0 0.00 0.00 0.00 87 1012.5
20260505214848 66 23 0.0 0.0 0.00 0.00 0.00 86 1012.4
20260505214338 67 23 0.0 0.0 0.00 0.00 0.00 85 1012.4
20260505213828 67 23 0.0 0.0 0.00 0.00 0.00 84 1012.2
20260505213318 68 23 0.0 0.0 0.00 0.00 0.00 83 1012.5
20260505212808 69 23 0.0 0.0 0.00 0.00 0.00 82 1012.5
20260505212258 69 23 0.0 0.0 0.00 0.00 0.00 81 1012.4
20260505211747 69 23 0.0 0.0 0.00 0.00 0.00 81 1012.3
20260505211237 70 23 0.0 0.0 0.00 0.00 0.00 80 1012.4
20260505210727 70 23 0.0 0.0 0.00 0.00 0.00 80 1012.3
20260505210216 71 0 0.0 0.0 0.00 0.00 0.00 78 1012.2
20260505205707 71 90 0.0 0.0 0.00 0.00 0.00 77 1012.3
20260505205157 72 113 0.0 0.0 0.00 0.00 0.00 77 1012.5
20260505204646 72 113 0.0 0.0 0.00 0.00 0.00 76 1012.2
20260505204136 72 90 0.0 0.0 0.00 0.00 0.00 76 1012.2
20260505203627 72 113 0.0 0.0 0.00 0.00 0.00 76 1012.2
20260505203116 73 113 0.0 0.0 0.00 0.00 0.00 76 1012.2
20260505202607 73 113 0.0 0.0 0.00 0.00 0.00 75 1012.2
20260505201546 73 113 0.0 0.0 0.00 0.00 0.00 75 1012.1
20260505201037 73 90 0.0 0.0 0.00 0.00 0.00 75 1012.2
20260505200018 73 113 0.0 0.0 0.00 0.00 0.00 75 1012.4
20260505195506 73 113 0.0 0.0 0.00 0.00 0.00 75 1012.2
20260505194956 73 68 0.0 0.0 0.00 0.00 0.00 75 1012.0
20260505194448 73 68 0.0 0.0 0.00 0.00 0.00 74 1012.3
20260505193935 74 68 0.0 0.0 0.00 0.00 0.00 74 1012.1
20260505193425 73 68 0.0 0.0 0.00 0.00 0.00 75 1012.1
20260505192405 73 68 0.0 0.0 0.00 0.00 0.00 75 1012.6
20260505191855 74 113 0.0 0.0 0.00 0.00 0.00 73 1012.2
20260505190835 74 68 0.0 0.0 0.00 0.00 0.00 74 1012.2
20260505190324 73 135 0.0 0.0 0.00 0.00 0.00 74 1012.3
20260505185815 73 45 0.0 0.0 0.00 0.00 0.00 74 1012.4
20260505185305 73 90 0.0 0.0 0.00 0.00 0.00 74 1012.1
20260505184244 73 45 0.0 0.0 0.00 0.00 0.00 75 1012.3
20260505183734 73 45 0.0 0.0 0.00 0.00 0.00 73 1012.1
20260505183224 74 135 0.0 0.0 0.00 0.00 0.00 73 1012.3
20260505182714 74 45 0.0 0.0 0.00 0.00 0.00 74 1012.2
20260505181653 74 23 0.0 0.0 0.00 0.00 0.00 74 1012.1
20260505181143 74 23 0.0 0.0 0.00 0.00 0.00 73 1012.3
20260505180633 73 23 0.0 0.0 0.00 0.00 0.00 74 1012.3
20260505180123 73 23 0.0 0.0 0.00 0.00 0.00 76 1012.3
20260505175613 73 23 0.0 0.0 0.00 0.00 0.00 74 1012.3
20260505175102 75 23 0.0 0.0 0.00 0.00 0.00 72 1012.2
20260505174552 73 248 0.0 0.0 0.00 0.00 0.00 76 1012.4
20260505174042 73 23 0.0 0.0 0.00 0.00 0.00 75 1012.5
20260505173532 74 23 0.0 0.0 0.00 0.00 0.00 75 1012.3
20260505173022 72 45 0.0 0.0 0.00 0.00 0.00 78 1012.6
20260505172512 73 45 0.0 0.0 0.00 0.00 0.00 76 1012.6
20260505172001 71 45 0.0 0.0 0.00 0.00 0.00 80 1012.7
20260505170943 72 68 0.0 0.0 0.00 0.00 0.00 79 1012.9
20260505165922 71 45 0.0 0.0 0.00 0.00 0.00 80 1012.9
20260505164902 71 45 0.0 0.0 0.00 0.00 0.00 80 1012.7
20260505164352 70 68 0.0 0.0 0.00 0.00 0.00 83 1012.9
20260505163841 70 23 0.0 0.0 0.00 0.00 0.00 82 1012.7
20260505163332 69 68 0.0 0.0 0.00 0.00 0.00 84 1012.9
20260505162311 71 68 0.0 0.0 0.00 0.00 0.00 81 1013.1
20260505161250 71 23 0.0 0.0 0.00 0.00 0.00 80 1013.3
20260505160742 71 23 0.0 0.0 0.00 0.00 0.00 81 1013.3
20260505160230 71 45 0.0 0.0 0.00 0.00 0.00 82 1013.3
20260505153129 68 45 0.0 0.0 0.00 0.00 0.00 85 1013.3
20260505152620 68 68 0.0 0.0 0.00 0.00 0.00 88 1013.3
20260505152109 66 45 0.0 0.0 0.00 0.00 0.00 89 1013.2
20260505151049 66 23 0.0 0.0 0.00 0.00 0.00 91 1013.3
20260505150546 66 45 0.0 0.0 0.00 0.00 0.00 89 1013.6
20260505140338 62 90 0.0 0.0 0.00 0.00 0.00 96 1014.1
20260505130137 58 158 0.0 0.0 0.00 0.00 0.00 98 1014.1
20260505124607 59 158 0.0 0.0 0.00 0.00 0.00 98 1013.5
20260505123546 58 113 0.0 0.0 0.00 0.00 0.00 99 1014.0
20260505123042 57 135 0.0 0.0 0.00 0.00 0.00 99 1013.6
20260505122525 56 135 0.0 0.0 0.00 0.00 0.00 99 1013.6
20260505120955 53 203 0.0 0.0 0.00 0.00 0.00 99 1013.5
20260505120445 53 203 0.0 0.0 0.00 0.00 0.00 99 1013.7
20260505115935 53 203 0.0 0.0 0.00 0.00 0.00 99 1013.5
20260505115426 53 203 0.0 0.0 0.00 0.00 0.00 99 1013.6
20260505114405 53 203 0.0 0.0 0.00 0.00 0.00 99 1013.3
20260505113345 53 225 0.0 0.0 0.00 0.00 0.00 99 1013.4
20260505112834 53 225 0.0 0.0 0.00 0.00 0.00 99 1013.2
20260505112325 53 225 0.0 0.0 0.00 0.00 0.00 99 1013.1
20260505111813 52 180 0.0 0.0 0.00 0.00 0.00 99 1013.3
20260505111304 52 225 0.0 0.0 0.00 0.00 0.00 99 1012.8
20260505110754 53 180 0.0 0.0 0.00 0.00 0.00 99 1012.8
20260505101613 49 225 0.0 0.0 0.00 0.00 0.00 99 1012.0
20260505101103 49 225 0.0 0.0 0.00 0.00 0.00 99 1012.1
20260505100553 50 225 0.0 0.0 0.00 0.00 0.00 99 1011.8
20260505100047 50 225 0.0 0.0 0.00 0.00 0.00 99 1012.0
20260505095533 51 225 0.0 0.0 0.00 0.00 0.00 99 1011.8
20260505095020 51 225 0.0 0.0 0.00 0.00 0.00 99 1011.7
20260505094514 51 225 0.0 0.0 0.00 0.00 0.00 99 1011.7
20260505094003 51 225 0.0 0.0 0.00 0.00 0.00 99 1011.5
20260505093452 52 225 0.0 0.0 0.00 0.00 0.00 99 1011.5
20260505092941 51 225 0.0 0.0 0.00 0.00 0.00 99 1011.6
20260505092432 51 225 0.0 0.0 0.00 0.00 0.00 99 1011.6
20260505090352 50 225 0.0 0.0 0.00 0.00 0.00 99 1011.5
20260505085330 50 225 0.0 0.0 0.00 0.00 0.00 99 1011.3
20260505084821 50 225 0.0 0.0 0.00 0.00 0.00 99 1011.4
20260505084310 51 225 0.0 0.0 0.00 0.00 0.00 99 1011.1
20260505083800 51 225 0.0 0.0 0.00 0.00 0.00 99 1011.2
20260505083249 51 225 0.0 0.0 0.00 0.00 0.00 99 1011.1
20260505082740 51 225 0.0 0.0 0.00 0.00 0.00 99 1011.2
20260505082230 51 225 0.0 0.0 0.00 0.00 0.00 99 1011.1
20260505081720 51 225 0.0 0.0 0.00 0.00 0.00 99 1011.1
20260505081210 51 225 0.0 0.0 0.00 0.00 0.00 99 1011.5
20260505080700 51 225 0.0 0.0 0.00 0.00 0.00 99 1011.3
20260505075129 52 225 0.0 0.0 0.00 0.00 0.00 99 1011.4
20260505074619 52 225 0.0 0.0 0.00 0.00 0.00 99 1011.3
20260505074109 52 225 0.0 0.0 0.00 0.00 0.00 99 1011.3
20260505073559 52 225 0.0 0.0 0.00 0.00 0.00 99 1011.2
20260505073051 52 225 0.0 0.0 0.00 0.00 0.00 99 1011.2
20260505072539 51 225 0.0 0.0 0.00 0.00 0.00 99 1011.4
20260505072029 50 225 0.0 0.0 0.00 0.00 0.00 99 1011.3
20260505071008 49 248 0.0 0.0 0.00 0.00 0.00 99 1011.3
20260505070458 50 248 0.0 0.0 0.00 0.00 0.00 99 1011.2
20260505065948 50 248 0.0 0.0 0.00 0.00 0.00 99 1011.1
20260505065438 49 248 0.0 0.0 0.00 0.00 0.00 99 1011.2
20260505064928 48 248 0.0 0.0 0.00 0.00 0.00 99 1011.4
20260505064418 47 248 0.0 0.0 0.00 0.00 0.00 99 1011.2
20260505063907 49 248 0.0 0.0 0.00 0.00 0.00 99 1011.5
20260505063358 49 0 0.0 0.0 0.00 0.00 0.00 99 1011.5
20260505062847 48 0 0.0 0.0 0.00 0.00 0.00 99 1011.3
20260505062338 47 0 0.0 0.0 0.00 0.00 0.00 99 1011.4
20260505061828 47 0 0.0 0.0 0.00 0.00 0.00 99 1011.3
20260505061317 48 0 0.0 0.0 0.00 0.00 0.00 99 1011.4
20260505060807 48 0 0.0 0.0 0.00 0.00 0.00 99 1011.6
20260505060257 49 0 0.0 0.0 0.00 0.00 0.00 99 1011.3
20260505055747 49 0 0.0 0.0 0.00 0.00 0.00 99 1011.4
20260505055237 51 0 0.0 0.0 0.00 0.00 0.00 99 1011.6
20260505053707 51 0 0.0 0.0 0.00 0.00 0.00 99 1011.8
20260505053156 50 0 0.0 0.0 0.00 0.00 0.00 99 1011.8
20260505052647 50 0 0.0 0.0 0.00 0.00 0.00 99 1012.0
20260505052138 51 248 0.0 0.0 0.00 0.00 0.00 99 1011.7
20260505051627 51 248 0.0 0.0 0.00 0.00 0.00 99 1011.5
20260505051115 52 248 0.0 0.0 0.00 0.00 0.00 99 1011.2
20260505050606 51 248 0.0 0.0 0.00 0.00 0.00 99 1011.4
20260505041426 50 0 0.0 0.0 0.00 0.00 0.00 99 1011.6
20260505040914 51 0 0.0 0.0 0.00 0.00 0.00 99 1011.5
20260505035854 51 0 0.0 0.0 0.00 0.00 0.00 99 1011.6
20260505035345 50 0 0.0 0.0 0.00 0.00 0.00 99 1011.8
20260505034835 50 0 0.0 0.0 0.00 0.00 0.00 99 1012.0
20260505034324 51 0 0.0 0.0 0.00 0.00 0.00 99 1012.0
20260505033814 53 0 0.0 0.0 0.00 0.00 0.00 99 1011.8
20260505032754 52 0 0.0 0.0 0.00 0.00 0.00 99 1011.6
20260505032245 53 0 0.0 0.0 0.00 0.00 0.00 99 1011.8
20260505031734 52 0 0.0 0.0 0.00 0.00 0.00 99 1011.7
20260505031224 52 0 0.0 0.0 0.00 0.00 0.00 99 1011.4
20260505030714 53 0 0.0 0.0 0.00 0.00 0.00 99 1011.7
20260505030204 54 0 0.0 0.0 0.00 0.00 0.00 99 1011.3
20260505025653 54 0 0.0 0.0 0.00 0.00 0.00 99 1011.6
20260505025143 54 0 0.0 0.0 0.00 0.00 0.00 99 1011.6
20260505024633 54 0 0.0 0.0 0.00 0.00 0.00 99 1011.6
20260505024123 54 0 0.0 0.0 0.00 0.00 0.00 99 1011.4
20260505023612 55 0 0.0 0.0 0.00 0.00 0.00 99 1011.1
20260505023103 56 0 0.0 0.0 0.00 0.00 0.00 99 1011.3
20260505022552 56 0 0.0 0.0 0.00 0.00 0.00 99 1011.2
20260505022042 55 0 0.0 0.0 0.00 0.00 0.00 99 1010.9
20260505021532 56 0 0.0 0.0 0.00 0.00 0.00 99 1011.0
20260505021022 56 0 0.0 0.0 0.00 0.00 0.00 98 1011.1
20260505020512 55 0 0.0 0.0 0.00 0.00 0.00 98 1011.2
20260505020003 56 0 0.0 0.0 0.00 0.00 0.00 97 1011.0
20260505015452 57 0 0.0 0.0 0.00 0.00 0.00 97 1011.2